Milan, NM

12:26 PM MST on February 23, 2017 (GMT -0700)
Grants-Milan Municipal

Weather History for KGNT - May, 2014

Change the Weather History Date:

Friday, May 9, 2014

  Actual Average Record
Temperature  
Mean Temperature 46 °F -  
Max Temperature 68 °F 74 °F 86 °F (1974)
Min Temperature 25 °F 36 °F 20 °F (1965)
Degree Days  
Heating Degree Days 18    
Moisture  
Dew Point 19 °F    
Average Humidity 33    
Maximum Humidity 64    
Minimum Humidity 15    
Precipitation  
Precipitation 0.00 in - - ()
Sea Level Pressure  
Sea Level Pressure 30.09 in    
Wind  
Wind Speed 7 mph (West)    
Max Wind Speed 23 mph    
Max Gust Speed 31 mph    
Visibility 10 miles    
Events      
Averages and records for this station are not official NWS values.
T = Trace of Precipitation, MM = Missing Value Source: NWS Daily Summary

Daily Weather History Graph

Daily Weather History Graph

Search for Another Location

Airport or City:

Trip Planner

Search our weather history database for the weather conditions in past years. The results will help you decide how hot, cold, wet, or windy it might be!

Date:

Astronomy

May. 09, 2014 Rise Set
Actual Time 6:12 AM MDT 8:03 PM MDT
Civil Twilight 5:44 AM MDT 8:31 PM MDT
Nautical Twilight 5:11 AM MDT 9:05 PM MDT
Astronomical Twilight 4:35 AM MDT 9:41 PM MDT
Moon 3:15 PM MDT (5/9) 3:04 AM MDT (5/9)
Length of Visible Light 14h 46m
Length of Day
13h 51m
Waxing Gibbous, 74% of the Moon is Illuminated
May 9
Waxing Gibbous
May 14
Full
May 21
Last Quarter
May 28
New
Jun 5
First Quarter

Hourly Weather History & Observations

Time (MDT) Temp. Windchill Dew Point Humidity Pressure Visibility Wind Dir Wind Speed Gust Speed Precip Events Conditions
12:15 AM 37.9 °F 33.5 °F 15.4 °F 40% 30.14 in 10.0 mi NW 5.8 mph - N/A   Clear
12:35 AM 32.7 °F 28.3 °F 16.2 °F 51% 30.15 in 10.0 mi NNW 4.6 mph - N/A   Clear
12:55 AM 30.9 °F 25.2 °F 14.9 °F 52% 30.14 in 10.0 mi NNW 5.8 mph - N/A   Clear
1:15 AM 30.7 °F 24.1 °F 15.8 °F 54% 30.13 in 10.0 mi NW 6.9 mph - N/A   Clear
1:35 AM 31.1 °F 23.7 °F 15.8 °F 53% 30.13 in 10.0 mi NNW 8.1 mph - N/A   Clear
1:55 AM 31.6 °F - 16.0 °F 52% 30.14 in 10.0 mi Calm Calm - N/A   Clear
2:15 AM 32.4 °F - 15.1 °F 49% 30.13 in 10.0 mi Calm Calm - N/A   Clear
2:35 AM 28.6 °F 21.5 °F 15.3 °F 58% 30.13 in 10.0 mi NW 6.9 mph - N/A   Clear
2:55 AM 30.6 °F 27.1 °F 15.8 °F 54% 30.13 in 10.0 mi NW 3.5 mph - N/A   Clear
3:15 AM 26.4 °F 18.9 °F 15.3 °F 63% 30.13 in 10.0 mi WNW 6.9 mph - N/A   Clear
3:35 AM 27.7 °F 22.4 °F 14.4 °F 57% 30.13 in 10.0 mi NNW 4.6 mph - N/A   Clear
3:55 AM 26.4 °F 20.9 °F 13.6 °F 59% 30.14 in 10.0 mi NNW 4.6 mph - N/A   Clear
4:15 AM 29.1 °F 24.1 °F 13.8 °F 53% 30.13 in 10.0 mi NW 4.6 mph - N/A   Clear
4:35 AM 27.0 °F - 14.2 °F 59% 30.13 in 10.0 mi Calm Calm - N/A   Clear
4:55 AM 27.0 °F 23.0 °F 14.4 °F 59% 30.13 in 10.0 mi NW 3.5 mph - N/A   Clear
5:15 AM 25.7 °F - 13.3 °F 59% 30.13 in 10.0 mi Calm Calm - N/A   Clear
5:35 AM 27.0 °F - 13.8 °F 58% 30.14 in 10.0 mi Calm Calm - N/A   Clear
5:55 AM 26.1 °F - 15.3 °F 64% 30.14 in 10.0 mi Calm Calm - N/A   Clear
6:15 AM 27.7 °F 23.8 °F 14.7 °F 58% 30.14 in 10.0 mi NNW 3.5 mph - N/A   Clear
6:35 AM 28.4 °F 24.6 °F 16.0 °F 60% 30.15 in 10.0 mi West 3.5 mph - N/A   Clear
6:55 AM 30.2 °F 25.4 °F 16.3 °F 56% 30.15 in 10.0 mi South 4.6 mph - N/A   Clear
7:15 AM 33.1 °F 27.7 °F 19.8 °F 58% 30.14 in 10.0 mi SE 5.8 mph - N/A   Clear
7:35 AM 38.7 °F 35.2 °F 21.9 °F 51% 30.15 in 10.0 mi SE 4.6 mph - N/A   Clear
7:55 AM 41.2 °F 36.6 °F 21.4 °F 45% 30.16 in 10.0 mi ESE 6.9 mph - N/A   Clear
8:15 AM 43.2 °F 37.9 °F 22.3 °F 44% 30.16 in 10.0 mi ESE 9.2 mph - N/A   Clear
8:35 AM 45.7 °F 41.5 °F 23.0 °F 41% 30.16 in 10.0 mi ESE 8.1 mph - N/A   Clear
8:55 AM 48.2 °F - 23.9 °F 39% 30.16 in 10.0 mi ESE 6.9 mph - N/A   Clear
9:15 AM 50.9 °F - 23.7 °F 35% 30.15 in 10.0 mi Calm Calm - N/A   Clear
9:35 AM 53.2 °F - 25.0 °F 33% 30.15 in 10.0 mi Calm Calm - N/A   Clear
10:15 AM 54.5 °F - 22.5 °F 29% 30.14 in 10.0 mi NNE 3.5 mph - N/A   Clear
10:35 AM 57.7 °F - 23.0 °F 26% 30.13 in 10.0 mi NW 12.7 mph 17.3 mph N/A   Clear
10:55 AM 59.2 °F - 21.4 °F 23% 30.12 in 10.0 mi NW 10.4 mph 17.3 mph N/A   Clear
11:15 AM 59.9 °F - 21.7 °F 23% 30.12 in 10.0 mi WSW 11.5 mph 17.3 mph N/A   Clear
11:35 AM 60.3 °F - 20.8 °F 22% 30.12 in 10.0 mi West 9.2 mph 16.1 mph N/A   Clear
11:55 AM 60.4 °F - 19.8 °F 21% 30.12 in 10.0 mi WSW 9.2 mph 21.9 mph N/A   Clear
12:15 PM 62.6 °F - 19.2 °F 19% 30.12 in 10.0 mi WSW 15.0 mph 23.0 mph N/A   Clear
12:35 PM 61.7 °F - 19.4 °F 20% 30.10 in 10.0 mi North 3.5 mph - N/A   Clear
12:55 PM 63.7 °F - 19.2 °F 18% 30.09 in 10.0 mi West 12.7 mph 20.7 mph N/A   Clear
1:15 PM 64.0 °F - 19.6 °F 18% 30.08 in 10.0 mi West 11.5 mph 20.7 mph N/A   Clear
1:35 PM 65.1 °F - 21.6 °F 19% 30.07 in 10.0 mi West 10.4 mph 19.6 mph N/A   Clear
1:55 PM 64.9 °F - 19.9 °F 18% 30.06 in 10.0 mi SSW 4.6 mph 17.3 mph N/A   Clear
2:15 PM 65.8 °F - 21.2 °F 18% 30.06 in 10.0 mi WSW 11.5 mph 24.2 mph N/A   Clear
2:35 PM 66.0 °F - 20.7 °F 18% 30.06 in 10.0 mi WSW 12.7 mph 25.3 mph N/A   Clear
2:55 PM 66.7 °F - 22.5 °F 19% 30.05 in 10.0 mi WSW 9.2 mph 18.4 mph N/A   Clear
3:15 PM 66.4 °F - 20.3 °F 17% 30.04 in 10.0 mi SW 13.8 mph 21.9 mph N/A   Clear
3:35 PM 68.2 °F - 19.8 °F 16% 30.04 in 10.0 mi West 16.1 mph 25.3 mph N/A   Clear
3:55 PM 67.3 °F - 19.9 °F 16% 30.03 in 10.0 mi West 15.0 mph 24.2 mph N/A   Clear
4:15 PM 68.2 °F - 19.0 °F 15% 30.02 in 10.0 mi WNW 15.0 mph 26.5 mph N/A   Clear
4:35 PM 68.0 °F - 19.0 °F 15% 30.02 in 10.0 mi West 23.0 mph 28.8 mph N/A   Clear
4:55 PM 67.8 °F - 19.0 °F 16% 30.01 in 10.0 mi West 19.6 mph 28.8 mph N/A   Clear
5:15 PM 67.5 °F - 17.4 °F 15% 30.00 in 10.0 mi West 18.4 mph 26.5 mph N/A   Clear
5:35 PM 67.6 °F - 17.4 °F 15% 30.01 in 10.0 mi West 20.7 mph 31.1 mph N/A   Clear
5:55 PM 67.5 °F - 18.9 °F 16% 30.01 in 10.0 mi West 15.0 mph 24.2 mph N/A   Clear
6:15 PM 67.3 °F - 17.6 °F 15% 30.01 in 10.0 mi WSW 17.3 mph 24.2 mph N/A   Clear
6:35 PM 67.1 °F - 17.8 °F 15% 30.01 in 10.0 mi West 16.1 mph 25.3 mph N/A   Clear
6:55 PM 65.8 °F - 17.8 °F 16% 30.01 in 10.0 mi West 10.4 mph 16.1 mph N/A   Clear
7:15 PM 65.1 °F - 17.2 °F 16% 30.01 in 10.0 mi WNW 16.1 mph 23.0 mph N/A   Clear
7:35 PM 64.2 °F - 17.8 °F 17% 30.01 in 10.0 mi WNW 11.5 mph 20.7 mph N/A   Clear
7:55 PM 62.8 °F - 17.6 °F 17% 30.02 in 10.0 mi West 11.5 mph 19.6 mph N/A   Clear
8:15 PM 61.2 °F - 18.1 °F 19% 30.02 in 10.0 mi WNW 9.2 mph - N/A   Clear
8:35 PM 59.7 °F - 18.9 °F 21% 30.03 in 10.0 mi West 8.1 mph - N/A   Clear
8:55 PM 56.3 °F - 18.5 °F 23% 30.04 in 10.0 mi North - - N/A   Clear
9:15 PM 53.8 °F - 18.5 °F 25% 30.04 in 10.0 mi WNW 6.9 mph - N/A   Clear
9:35 PM 54.9 °F - 18.5 °F 24% 30.05 in 10.0 mi WNW 3.5 mph - N/A   Clear
9:55 PM 54.3 °F - 19.0 °F 25% 30.06 in 10.0 mi West 5.8 mph - N/A   Clear
10:15 PM 49.1 °F - 17.4 °F 28% 30.06 in 10.0 mi ESE 3.5 mph - N/A   Clear
10:35 PM 46.8 °F - 17.2 °F 31% 30.07 in 10.0 mi Calm Calm - N/A   Clear
10:55 PM 48.0 °F - 18.3 °F 31% 30.07 in 10.0 mi West 6.9 mph - N/A   Clear
11:15 PM 54.7 °F - 21.2 °F 27% 30.07 in 10.0 mi West 11.5 mph - N/A   Clear
11:35 PM 55.9 °F - 22.3 °F 27% 30.07 in 10.0 mi West 16.1 mph 24.2 mph N/A   Clear
11:55 PM 55.4 °F - 22.6 °F 28% 30.07 in 10.0 mi West 16.1 mph 21.9 mph N/A   Clear